2019-303T00:02:14.681,   1,   3,   1,   120,   4,          0,     12.920,  47484.605,    56.599,   -11.248,     0.057,   319.820, 3, 1.000E+00,  1.00,  78,  4.314E-03,  7.187E-03, -9.999E+09, -9.999E+09, -9.999E+09, -9.999E+09, -9.999E+09, -9.999E+09, -9.999E+09, -9.999E+09, -9.999E+09, -9.999E+09, -9.999E+09, -9.999E+09, -9.999E+09, -9.999E+09, -9.999E+09, -9.999E+09, 255
2019-303T00:04:14.682,   1,   3,   1,   120,   4,          0,     12.920,  47484.605,    56.590,   -11.247,     0.057,   318.610, 3, 1.000E+00,  1.00,  78,  3.079E-03,  7.187E-03, -9.999E+09, -9.999E+09, -9.999E+09, -9.999E+09, -9.999E+09, -9.999E+09, -9.999E+09, -9.999E+09, -9.999E+09, -9.999E+09, -9.999E+09, -9.999E+09, -9.999E+09, -9.999E+09, -9.999E+09, -9.999E+09, 255
2019-303T00:06:14.684,   1,   3,   1,   120,   4,          0,     12.920,  47484.605,    56.580,   -11.245,     0.057,   317.401, 3, 1.000E+00,  1.00,  78,  3.495E-03,  7.187E-03, -9.999E+09, -9.999E+09, -9.999E+09, -9.999E+09, -9.999E+09, -9.999E+09, -9.999E+09, -9.999E+09, -9.999E+09, -9.999E+09, -9.999E+09, -9.999E+09, -9.999E+09, -9.999E+09, -9.999E+09, -9.999E+09, 255
2019-303T00:08:14.685,   1,   3,   1,   120,   4,          0,     12.920,  47484.605,    56.571,   -11.243,     0.057,   316.191, 3, 1.000E+00,  1.00,  78,  3.064E-03,  7.187E-03, -9.999E+09, -9.999E+09, -9.999E+09, -9.999E+09, -9.999E+09, -9.999E+09, -9.999E+09, -9.999E+09, -9.999E+09, -9.999E+09, -9.999E+09, -9.999E+09, -9.999E+09, -9.999E+09, -9.999E+09, -9.999E+09, 255
2019-303T00:10:14.687,   1,   3,   1,   120,   4,          0,     12.920,  47484.605,    56.562,   -11.241,     0.057,   314.981, 3, 1.000E+00,  1.00,  78,  3.195E-03,  7.187E-03, -9.999E+09, -9.999E+09, -9.999E+09, -9.999E+09, -9.999E+09, -9.999E+09, -9.999E+09, -9.999E+09, -9.999E+09, -9.999E+09, -9.999E+09, -9.999E+09, -9.999E+09, -9.999E+09, -9.999E+09, -9.999E+09, 255
2019-303T00:12:14.688,   1,   3,   1,   120,   4,          0,     12.920,  47484.605,    56.553,   -11.240,     0.057,   313.772, 3, 1.000E+00,  1.00,  78,  3.531E-03,  7.187E-03, -9.999E+09, -9.999E+09, -9.999E+09, -9.999E+09, -9.999E+09, -9.999E+09, -9.999E+09, -9.999E+09, -9.999E+09, -9.999E+09, -9.999E+09, -9.999E+09, -9.999E+09, -9.999E+09, -9.999E+09, -9.999E+09, 255
2019-303T00:14:14.689,   1,   3,   1,   120,   4,          0,     12.920,  47484.605,    56.543,   -11.238,     0.057,   312.562, 3, 1.000E+00,  1.00,  78,  3.327E-03,  7.187E-03, -9.999E+09, -9.999E+09, -9.999E+09, -9.999E+09, -9.999E+09, -9.999E+09, -9.999E+09, -9.999E+09, -9.999E+09, -9.999E+09, -9.999E+09, -9.999E+09, -9.999E+09, -9.999E+09, -9.999E+09, -9.999E+09, 255
2019-303T00:16:14.691,   1,   3,   1,   120,   4,          0,     12.920,  47484.605,    56.534,   -11.236,     0.057,   311.353, 3, 1.000E+00,  1.00,  78,  3.013E-03,  7.187E-03, -9.999E+09, -9.999E+09, -9.999E+09, -9.999E+09, -9.999E+09, -9.999E+09, -9.999E+09, -9.999E+09, -9.999E+09, -9.999E+09, -9.999E+09, -9.999E+09, -9.999E+09, -9.999E+09, -9.999E+09, -9.999E+09, 255
2019-303T00:18:14.692,   1,   3,   1,   120,   4,          0,     12.920,  47484.605,    56.525,   -11.234,     0.057,   310.143, 3, 1.000E+00,  1.00,  78,  3.149E-03,  7.187E-03, -9.999E+09, -9.999E+09, -9.999E+09, -9.999E+09, -9.999E+09, -9.999E+09, -9.999E+09, -9.999E+09, -9.999E+09, -9.999E+09, -9.999E+09, -9.999E+09, -9.999E+09, -9.999E+09, -9.999E+09, -9.999E+09, 255
2019-303T00:20:14.694,   1,   3,   1,   120,   4,          0,     12.920,  47484.605,    56.516,   -11.233,     0.057,   308.933, 3, 1.000E+00,  1.00,  78,  3.138E-03,  7.187E-03, -9.999E+09, -9.999E+09, -9.999E+09, -9.999E+09, -9.999E+09, -9.999E+09, -9.999E+09, -9.999E+09, -9.999E+09, -9.999E+09, -9.999E+09, -9.999E+09, -9.999E+09, -9.999E+09, -9.999E+09, -9.999E+09, 255
2019-303T00:22:14.695,   1,   3,   1,   120,   4,          0,     12.920,  47484.605,    56.506,   -11.231,     0.057,   307.724, 3, 1.000E+00,  1.00,  78,  2.813E-03,  7.187E-03, -9.999E+09, -9.999E+09, -9.999E+09, -9.999E+09, -9.999E+09, -9.999E+09, -9.999E+09, -9.999E+09, -9.999E+09, -9.999E+09, -9.999E+09, -9.999E+09, -9.999E+09, -9.999E+09, -9.999E+09, -9.999E+09, 255
2019-303T00:24:14.696,   1,   3,   1,   120,   4,          0,     12.920,  47484.605,    56.497,   -11.229,     0.057,   306.514, 3, 1.000E+00,  1.00,  78,  2.963E-03,  7.187E-03, -9.999E+09, -9.999E+09, -9.999E+09, -9.999E+09, -9.999E+09, -9.999E+09, -9.999E+09, -9.999E+09, -9.999E+09, -9.999E+09, -9.999E+09, -9.999E+09, -9.999E+09, -9.999E+09, -9.999E+09, -9.999E+09, 255
2019-303T00:26:14.698,   1,   3,   1,   120,   4,          0,     12.920,  47484.605,    56.488,   -11.227,     0.057,   305.305, 3, 1.000E+00,  1.00,  78,  3.098E-03,  7.187E-03, -9.999E+09, -9.999E+09, -9.999E+09, -9.999E+09, -9.999E+09, -9.999E+09, -9.999E+09, -9.999E+09, -9.999E+09, -9.999E+09, -9.999E+09, -9.999E+09, -9.999E+09, -9.999E+09, -9.999E+09, -9.999E+09, 255
2019-303T00:28:14.699,   1,   3,   1,   120,   4,          0,     12.920,  47484.605,    56.479,   -11.226,     0.057,   304.095, 3, 1.000E+00,  1.00,  78,  3.499E-03,  7.187E-03, -9.999E+09, -9.999E+09, -9.999E+09, -9.999E+09, -9.999E+09, -9.999E+09, -9.999E+09, -9.999E+09, -9.999E+09, -9.999E+09, -9.999E+09, -9.999E+09, -9.999E+09, -9.999E+09, -9.999E+09, -9.999E+09, 255
2019-303T00:30:14.700,   1,   3,   1,   120,   4,          0,     12.920,  47484.605,    56.469,   -11.224,     0.057,   302.885, 3, 1.000E+00,  1.00,  78,  3.034E-03,  7.187E-03, -9.999E+09, -9.999E+09, -9.999E+09, -9.999E+09, -9.999E+09, -9.999E+09, -9.999E+09, -9.999E+09, -9.999E+09, -9.999E+09, -9.999E+09, -9.999E+09, -9.999E+09, -9.999E+09, -9.999E+09, -9.999E+09, 255
2019-303T00:32:14.702,   1,   3,   1,   120,   4,          0,     12.920,  47484.605,    56.460,   -11.222,     0.057,   301.676, 3, 1.000E+00,  1.00,  78,  3.385E-03,  7.187E-03, -9.999E+09, -9.999E+09, -9.999E+09, -9.999E+09, -9.999E+09, -9.999E+09, -9.999E+09, -9.999E+09, -9.999E+09, -9.999E+09, -9.999E+09, -9.999E+09, -9.999E+09, -9.999E+09, -9.999E+09, -9.999E+09, 255
2019-303T00:34:14.703,   1,   3,   1,   120,   4,          0,     12.920,  47484.605,    56.451,   -11.221,     0.057,   300.466, 3, 1.000E+00,  1.00,  78,  3.492E-03,  7.187E-03, -9.999E+09, -9.999E+09, -9.999E+09, -9.999E+09, -9.999E+09, -9.999E+09, -9.999E+09, -9.999E+09, -9.999E+09, -9.999E+09, -9.999E+09, -9.999E+09, -9.999E+09, -9.999E+09, -9.999E+09, -9.999E+09, 255
2019-303T00:36:14.705,   1,   3,   1,   120,   4,          0,     12.920,  47484.605,    56.442,   -11.219,     0.057,   299.256, 3, 1.000E+00,  1.00,  78,  3.266E-03,  7.187E-03, -9.999E+09, -9.999E+09, -9.999E+09, -9.999E+09, -9.999E+09, -9.999E+09, -9.999E+09, -9.999E+09, -9.999E+09, -9.999E+09, -9.999E+09, -9.999E+09, -9.999E+09, -9.999E+09, -9.999E+09, -9.999E+09, 255
2019-303T00:38:14.706,   1,   3,   1,   120,   4,          0,     12.920,  47484.605,    56.432,   -11.217,     0.057,   298.047, 3, 1.000E+00,  1.00,  78,  3.188E-03,  7.187E-03, -9.999E+09, -9.999E+09, -9.999E+09, -9.999E+09, -9.999E+09, -9.999E+09, -9.999E+09, -9.999E+09, -9.999E+09, -9.999E+09, -9.999E+09, -9.999E+09, -9.999E+09, -9.999E+09, -9.999E+09, -9.999E+09, 255
2019-303T00:40:14.707,   1,   3,   1,   120,   4,          0,     12.920,  47484.605,    56.423,   -11.215,     0.057,   296.837, 3, 1.000E+00,  1.00,  78,  3.691E-03,  7.187E-03, -9.999E+09, -9.999E+09, -9.999E+09, -9.999E+09, -9.999E+09, -9.999E+09, -9.999E+09, -9.999E+09, -9.999E+09, -9.999E+09, -9.999E+09, -9.999E+09, -9.999E+09, -9.999E+09, -9.999E+09, -9.999E+09, 255
2019-303T00:42:14.709,   1,   3,   1,   120,   4,          0,     12.920,  47484.605,    56.414,   -11.214,     0.056,   295.628, 3, 1.000E+00,  1.00,  78,  4.825E-03,  7.187E-03, -9.999E+09, -9.999E+09, -9.999E+09, -9.999E+09, -9.999E+09, -9.999E+09, -9.999E+09, -9.999E+09, -9.999E+09, -9.999E+09, -9.999E+09, -9.999E+09, -9.999E+09, -9.999E+09, -9.999E+09, -9.999E+09, 255
2019-303T00:44:14.710,   1,   3,   1,   120,   4,          0,     12.920,  47484.605,    56.405,   -11.212,     0.056,   294.418, 3, 1.000E+00,  1.00,  78,  5.885E-03,  7.188E-03, -9.999E+09, -9.999E+09, -9.999E+09, -9.999E+09, -9.999E+09, -9.999E+09, -9.999E+09, -9.999E+09, -9.999E+09, -9.999E+09, -9.999E+09, -9.999E+09, -9.999E+09, -9.999E+09, -9.999E+09, -9.999E+09, 255
2019-303T00:46:14.711,   1,   3,   1,   120,   4,          0,     12.920,  47484.605,    56.395,   -11.210,     0.056,   293.208, 3, 1.000E+00,  1.00,  78,  7.330E-03,  7.188E-03, -9.999E+09, -9.999E+09, -9.999E+09, -9.999E+09, -9.999E+09, -9.999E+09, -9.999E+09, -9.999E+09, -9.999E+09, -9.999E+09, -9.999E+09, -9.999E+09, -9.999E+09, -9.999E+09, -9.999E+09, -9.999E+09, 255
2019-303T00:48:14.713,   1,   3,   1,   120,   4,          0,     12.920,  47484.605,    56.386,   -11.208,     0.056,   291.999, 3, 1.000E+00,  1.00,  78,  7.297E-03,  7.188E-03, -9.999E+09, -9.999E+09, -9.999E+09, -9.999E+09, -9.999E+09, -9.999E+09, -9.999E+09, -9.999E+09, -9.999E+09, -9.999E+09, -9.999E+09, -9.999E+09, -9.999E+09, -9.999E+09, -9.999E+09, -9.999E+09, 255
2019-303T00:50:14.714,   1,   3,   1,   120,   4,          0,     12.920,  47484.605,    56.377,   -11.207,     0.056,   290.789, 3, 1.000E+00,  1.00,  78,  1.149E-02,  7.190E-03, -9.999E+09, -9.999E+09, -9.999E+09, -9.999E+09, -9.999E+09, -9.999E+09, -9.999E+09, -9.999E+09, -9.999E+09, -9.999E+09, -9.999E+09, -9.999E+09, -9.999E+09, -9.999E+09, -9.999E+09, -9.999E+09, 255
2019-303T00:52:14.716,   1,   3,   1,   120,   4,          0,     12.920,  47484.605,    56.368,   -11.205,     0.056,   289.580, 3, 1.000E+00,  1.00,  78,  1.283E-02,  7.189E-03, -9.999E+09, -9.999E+09, -9.999E+09, -9.999E+09, -9.999E+09, -9.999E+09, -9.999E+09, -9.999E+09, -9.999E+09, -9.999E+09, -9.999E+09, -9.999E+09, -9.999E+09, -9.999E+09, -9.999E+09, -9.999E+09, 255
2019-303T00:54:14.717,   1,   3,   1,   120,   4,          0,     12.920,  47484.605,    56.358,   -11.203,     0.056,   288.370, 3, 1.000E+00,  1.00,  78,  1.333E-02,  7.190E-03, -9.999E+09, -9.999E+09, -9.999E+09, -9.999E+09, -9.999E+09, -9.999E+09, -9.999E+09, -9.999E+09, -9.999E+09, -9.999E+09, -9.999E+09, -9.999E+09, -9.999E+09, -9.999E+09, -9.999E+09, -9.999E+09, 255
2019-303T00:56:14.718,   1,   3,   1,   120,   4,          0,     12.920,  47484.605,    56.349,   -11.201,     0.056,   287.160, 3, 1.000E+00,  1.00,  78,  1.331E-02,  7.190E-03, -9.999E+09, -9.999E+09, -9.999E+09, -9.999E+09, -9.999E+09, -9.999E+09, -9.999E+09, -9.999E+09, -9.999E+09, -9.999E+09, -9.999E+09, -9.999E+09, -9.999E+09, -9.999E+09, -9.999E+09, -9.999E+09, 255
2019-303T00:58:14.720,   1,   3,   1,   120,   4,          0,     12.920,  47484.605,    56.340,   -11.199,     0.056,   285.951, 3, 1.000E+00,  1.00,  78,  1.432E-02,  7.191E-03, -9.999E+09, -9.999E+09, -9.999E+09, -9.999E+09, -9.999E+09, -9.999E+09, -9.999E+09, -9.999E+09, -9.999E+09, -9.999E+09, -9.999E+09, -9.999E+09, -9.999E+09, -9.999E+09, -9.999E+09, -9.999E+09, 255
2019-303T01:00:14.721,   1,   3,   1,   120,   4,          0,     12.920,  47484.605,    56.331,   -11.198,     0.056,   284.741, 3, 1.000E+00,  1.00,  78,  1.119E-02,  7.189E-03, -9.999E+09, -9.999E+09, -9.999E+09, -9.999E+09, -9.999E+09, -9.999E+09, -9.999E+09, -9.999E+09, -9.999E+09, -9.999E+09, -9.999E+09, -9.999E+09, -9.999E+09, -9.999E+09, -9.999E+09, -9.999E+09, 255
2019-303T01:02:14.723,   1,   3,   1,   120,   4,          0,     12.920,  47484.605,    56.321,   -11.196,     0.056,   283.532, 3, 1.000E+00,  1.00,  78,  8.291E-03,  7.188E-03, -9.999E+09, -9.999E+09, -9.999E+09, -9.999E+09, -9.999E+09, -9.999E+09, -9.999E+09, -9.999E+09, -9.999E+09, -9.999E+09, -9.999E+09, -9.999E+09, -9.999E+09, -9.999E+09, -9.999E+09, -9.999E+09, 255
2019-303T01:04:14.724,   1,   3,   1,   120,   4,          0,     12.920,  47484.605,    56.312,   -11.194,     0.056,   282.322, 3, 1.000E+00,  1.00,  78,  7.792E-03,  7.188E-03, -9.999E+09, -9.999E+09, -9.999E+09, -9.999E+09, -9.999E+09, -9.999E+09, -9.999E+09, -9.999E+09, -9.999E+09, -9.999E+09, -9.999E+09, -9.999E+09, -9.999E+09, -9.999E+09, -9.999E+09, -9.999E+09, 255
2019-303T01:06:14.725,   1,   3,   1,   120,   4,          0,     12.920,  47484.605,    56.303,   -11.192,     0.056,   281.112, 3, 1.000E+00,  1.00,  78,  5.255E-03,  7.187E-03, -9.999E+09, -9.999E+09, -9.999E+09, -9.999E+09, -9.999E+09, -9.999E+09, -9.999E+09, -9.999E+09, -9.999E+09, -9.999E+09, -9.999E+09, -9.999E+09, -9.999E+09, -9.999E+09, -9.999E+09, -9.999E+09, 255
2019-303T01:08:14.727,   1,   3,   1,   120,   4,          0,     12.920,  47484.605,    56.293,   -11.191,     0.056,   279.903, 3, 1.000E+00,  1.00,  78,  6.433E-03,  7.188E-03, -9.999E+09, -9.999E+09, -9.999E+09, -9.999E+09, -9.999E+09, -9.999E+09, -9.999E+09, -9.999E+09, -9.999E+09, -9.999E+09, -9.999E+09, -9.999E+09, -9.999E+09, -9.999E+09, -9.999E+09, -9.999E+09, 255
2019-303T01:10:14.728,   1,   3,   1,   120,   4,          0,     12.920,  47484.605,    56.284,   -11.189,     0.056,   278.693, 3, 1.000E+00,  1.00,  78,  5.551E-03,  7.187E-03, -9.999E+09, -9.999E+09, -9.999E+09, -9.999E+09, -9.999E+09, -9.999E+09, -9.999E+09, -9.999E+09, -9.999E+09, -9.999E+09, -9.999E+09, -9.999E+09, -9.999E+09, -9.999E+09, -9.999E+09, -9.999E+09, 255
2019-303T01:12:14.730,   1,   3,   1,   120,   4,          0,     12.920,  47484.605,    56.275,   -11.187,     0.056,   277.484, 3, 1.000E+00,  1.00,  78,  5.705E-03,  7.188E-03, -9.999E+09, -9.999E+09, -9.999E+09, -9.999E+09, -9.999E+09, -9.999E+09, -9.999E+09, -9.999E+09, -9.999E+09, -9.999E+09, -9.999E+09, -9.999E+09, -9.999E+09, -9.999E+09, -9.999E+09, -9.999E+09, 255
2019-303T01:14:14.731,   1,   3,   1,   120,   4,          0,     12.920,  47484.605,    56.266,   -11.185,     0.056,   276.274, 3, 1.000E+00,  1.00,  78,  4.106E-03,  7.187E-03, -9.999E+09, -9.999E+09, -9.999E+09, -9.999E+09, -9.999E+09, -9.999E+09, -9.999E+09, -9.999E+09, -9.999E+09, -9.999E+09, -9.999E+09, -9.999E+09, -9.999E+09, -9.999E+09, -9.999E+09, -9.999E+09, 255
2019-303T01:16:14.732,   1,   3,   1,   120,   4,          0,     12.920,  47484.605,    56.256,   -11.184,     0.056,   275.064, 3, 1.000E+00,  1.00,  78,  4.357E-03,  7.187E-03, -9.999E+09, -9.999E+09, -9.999E+09, -9.999E+09, -9.999E+09, -9.999E+09, -9.999E+09, -9.999E+09, -9.999E+09, -9.999E+09, -9.999E+09, -9.999E+09, -9.999E+09, -9.999E+09, -9.999E+09, -9.999E+09, 255
2019-303T01:18:14.734,   1,   3,   1,   120,   4,          0,     12.920,  47484.605,    56.247,   -11.182,     0.056,   273.855, 3, 1.000E+00,  1.00,  78,  3.118E-03,  7.187E-03, -9.999E+09, -9.999E+09, -9.999E+09, -9.999E+09, -9.999E+09, -9.999E+09, -9.999E+09, -9.999E+09, -9.999E+09, -9.999E+09, -9.999E+09, -9.999E+09, -9.999E+09, -9.999E+09, -9.999E+09, -9.999E+09, 255
2019-303T01:20:14.735,   1,   3,   1,   120,   4,          0,     12.920,  47484.605,    56.238,   -11.180,     0.056,   272.645, 3, 1.000E+00,  1.00,  78,  4.009E-03,  7.187E-03, -9.999E+09, -9.999E+09, -9.999E+09, -9.999E+09, -9.999E+09, -9.999E+09, -9.999E+09, -9.999E+09, -9.999E+09, -9.999E+09, -9.999E+09, -9.999E+09, -9.999E+09, -9.999E+09, -9.999E+09, -9.999E+09, 255
2019-303T01:22:14.736,   1,   3,   1,   120,   4,          0,     12.920,  47484.605,    56.228,   -11.178,     0.056,   271.436, 3, 1.000E+00,  1.00,  78,  4.388E-03,  7.187E-03, -9.999E+09, -9.999E+09, -9.999E+09, -9.999E+09, -9.999E+09, -9.999E+09, -9.999E+09, -9.999E+09, -9.999E+09, -9.999E+09, -9.999E+09, -9.999E+09, -9.999E+09, -9.999E+09, -9.999E+09, -9.999E+09, 255
2019-303T01:24:14.738,   1,   3,   1,   120,   4,          0,     12.920,  47484.605,    56.219,   -11.177,     0.056,   270.226, 3, 1.000E+00,  1.00,  78,  4.391E-03,  7.187E-03, -9.999E+09, -9.999E+09, -9.999E+09, -9.999E+09, -9.999E+09, -9.999E+09, -9.999E+09, -9.999E+09, -9.999E+09, -9.999E+09, -9.999E+09, -9.999E+09, -9.999E+09, -9.999E+09, -9.999E+09, -9.999E+09, 255
2019-303T01:26:14.739,   1,   3,   1,   120,   4,          0,     12.920,  47484.605,    56.210,   -11.175,     0.056,   269.016, 3, 1.000E+00,  1.00,  78,  4.009E-03,  7.187E-03, -9.999E+09, -9.999E+09, -9.999E+09, -9.999E+09, -9.999E+09, -9.999E+09, -9.999E+09, -9.999E+09, -9.999E+09, -9.999E+09, -9.999E+09, -9.999E+09, -9.999E+09, -9.999E+09, -9.999E+09, -9.999E+09, 255
2019-303T01:28:14.741,   1,   3,   1,   120,   4,          0,     12.920,  47484.605,    56.201,   -11.173,     0.056,   267.807, 3, 1.000E+00,  1.00,  78,  3.370E-03,  7.187E-03, -9.999E+09, -9.999E+09, -9.999E+09, -9.999E+09, -9.999E+09, -9.999E+09, -9.999E+09, -9.999E+09, -9.999E+09, -9.999E+09, -9.999E+09, -9.999E+09, -9.999E+09, -9.999E+09, -9.999E+09, -9.999E+09, 255
2019-303T01:30:14.742,   1,   3,   1,   120,   4,          0,     12.920,  47484.605,    56.191,   -11.171,     0.056,   266.597, 3, 1.000E+00,  1.00,  78,  4.084E-03,  7.187E-03, -9.999E+09, -9.999E+09, -9.999E+09, -9.999E+09, -9.999E+09, -9.999E+09, -9.999E+09, -9.999E+09, -9.999E+09, -9.999E+09, -9.999E+09, -9.999E+09, -9.999E+09, -9.999E+09, -9.999E+09, -9.999E+09, 255
2019-303T01:32:14.743,   1,   3,   1,   120,   4,          0,     12.920,  47484.605,    56.182,   -11.170,     0.056,   265.388, 3, 1.000E+00,  1.00,  78,  4.099E-03,  7.187E-03, -9.999E+09, -9.999E+09, -9.999E+09, -9.999E+09, -9.999E+09, -9.999E+09, -9.999E+09, -9.999E+09, -9.999E+09, -9.999E+09, -9.999E+09, -9.999E+09, -9.999E+09, -9.999E+09, -9.999E+09, -9.999E+09, 255
2019-303T01:34:14.745,   1,   3,   1,   120,   4,          0,     12.920,  47484.605,    56.173,   -11.168,     0.056,   264.178, 3, 1.000E+00,  1.00,  78,  5.353E-03,  7.187E-03, -9.999E+09, -9.999E+09, -9.999E+09, -9.999E+09, -9.999E+09, -9.999E+09, -9.999E+09, -9.999E+09, -9.999E+09, -9.999E+09, -9.999E+09, -9.999E+09, -9.999E+09, -9.999E+09, -9.999E+09, -9.999E+09, 255
2019-303T01:36:14.746,   1,   3,   1,   120,   4,          0,     12.920,  47484.605,    56.163,   -11.166,     0.055,   262.968, 3, 1.000E+00,  1.00,  78,  6.197E-03,  7.188E-03, -9.999E+09, -9.999E+09, -9.999E+09, -9.999E+09, -9.999E+09, -9.999E+09, -9.999E+09, -9.999E+09, -9.999E+09, -9.999E+09, -9.999E+09, -9.999E+09, -9.999E+09, -9.999E+09, -9.999E+09, -9.999E+09, 255
2019-303T01:38:14.748,   1,   3,   1,   120,   4,          0,     12.920,  47484.605,    56.154,   -11.164,     0.055,   261.759, 3, 1.000E+00,  1.00,  78,  6.072E-03,  7.187E-03, -9.999E+09, -9.999E+09, -9.999E+09, -9.999E+09, -9.999E+09, -9.999E+09, -9.999E+09, -9.999E+09, -9.999E+09, -9.999E+09, -9.999E+09, -9.999E+09, -9.999E+09, -9.999E+09, -9.999E+09, -9.999E+09, 255
2019-303T01:40:14.749,   1,   3,   1,   120,   4,          0,     12.920,  47484.605,    56.145,   -11.163,     0.055,   260.549, 3, 1.000E+00,  1.00,  78,  6.705E-03,  7.187E-03, -9.999E+09, -9.999E+09, -9.999E+09, -9.999E+09, -9.999E+09, -9.999E+09, -9.999E+09, -9.999E+09, -9.999E+09, -9.999E+09, -9.999E+09, -9.999E+09, -9.999E+09, -9.999E+09, -9.999E+09, -9.999E+09, 255
2019-303T01:42:14.750,   1,   3,   1,   120,   4,          0,     12.920,  47484.605,    56.136,   -11.161,     0.055,   259.339, 3, 1.000E+00,  1.00,  78,  6.496E-03,  7.188E-03, -9.999E+09, -9.999E+09, -9.999E+09, -9.999E+09, -9.999E+09, -9.999E+09, -9.999E+09, -9.999E+09, -9.999E+09, -9.999E+09, -9.999E+09, -9.999E+09, -9.999E+09, -9.999E+09, -9.999E+09, -9.999E+09, 255
2019-303T01:44:14.752,   1,   3,   1,   120,   4,          0,     12.920,  47484.605,    56.126,   -11.159,     0.055,   258.130, 3, 1.000E+00,  1.00,  78,  7.231E-03,  7.188E-03, -9.999E+09, -9.999E+09, -9.999E+09, -9.999E+09, -9.999E+09, -9.999E+09, -9.999E+09, -9.999E+09, -9.999E+09, -9.999E+09, -9.999E+09, -9.999E+09, -9.999E+09, -9.999E+09, -9.999E+09, -9.999E+09, 255
2019-303T01:46:14.753,   1,   3,   1,   120,   4,          0,     12.920,  47484.605,    56.117,   -11.157,     0.055,   256.920, 3, 1.000E+00,  1.00,  78,  7.484E-03,  7.188E-03, -9.999E+09, -9.999E+09, -9.999E+09, -9.999E+09, -9.999E+09, -9.999E+09, -9.999E+09, -9.999E+09, -9.999E+09, -9.999E+09, -9.999E+09, -9.999E+09, -9.999E+09, -9.999E+09, -9.999E+09, -9.999E+09, 255
2019-303T01:48:14.754,   1,   3,   1,   120,   4,          0,     12.920,  47484.605,    56.108,   -11.155,     0.055,   255.711, 3, 1.000E+00,  1.00,  78,  7.949E-03,  7.188E-03, -9.999E+09, -9.999E+09, -9.999E+09, -9.999E+09, -9.999E+09, -9.999E+09, -9.999E+09, -9.999E+09, -9.999E+09, -9.999E+09, -9.999E+09, -9.999E+09, -9.999E+09, -9.999E+09, -9.999E+09, -9.999E+09, 255
2019-303T01:50:14.756,   1,   3,   1,   120,   4,          0,     12.920,  47484.605,    56.098,   -11.154,     0.055,   254.501, 3, 1.000E+00,  1.00,  78,  9.948E-03,  7.188E-03, -9.999E+09, -9.999E+09, -9.999E+09, -9.999E+09, -9.999E+09, -9.999E+09, -9.999E+09, -9.999E+09, -9.999E+09, -9.999E+09, -9.999E+09, -9.999E+09, -9.999E+09, -9.999E+09, -9.999E+09, -9.999E+09, 255
2019-303T01:52:14.757,   1,   3,   1,   120,   4,          0,     12.920,  47484.605,    56.089,   -11.152,     0.055,   253.291, 3, 1.000E+00,  1.00,  78,  1.363E-02,  7.190E-03, -9.999E+09, -9.999E+09, -9.999E+09, -9.999E+09, -9.999E+09, -9.999E+09, -9.999E+09, -9.999E+09, -9.999E+09, -9.999E+09, -9.999E+09, -9.999E+09, -9.999E+09, -9.999E+09, -9.999E+09, -9.999E+09, 255
2019-303T01:54:14.759,   1,   3,   1,   120,   4,          0,     12.920,  47484.605,    56.080,   -11.150,     0.055,   252.082, 3, 1.000E+00,  1.00,  78,  1.139E-02,  7.189E-03, -9.999E+09, -9.999E+09, -9.999E+09, -9.999E+09, -9.999E+09, -9.999E+09, -9.999E+09, -9.999E+09, -9.999E+09, -9.999E+09, -9.999E+09, -9.999E+09, -9.999E+09, -9.999E+09, -9.999E+09, -9.999E+09, 255
2019-303T01:56:14.760,   1,   3,   1,   120,   4,          0,     12.920,  47484.605,    56.070,   -11.148,     0.055,   250.872, 3, 1.000E+00,  1.00,  78,  8.374E-03,  7.188E-03, -9.999E+09, -9.999E+09, -9.999E+09, -9.999E+09, -9.999E+09, -9.999E+09, -9.999E+09, -9.999E+09, -9.999E+09, -9.999E+09, -9.999E+09, -9.999E+09, -9.999E+09, -9.999E+09, -9.999E+09, -9.999E+09, 255
2019-303T01:58:14.761,   1,   3,   1,   120,   4,          0,     12.920,  47484.605,    56.061,   -11.147,     0.055,   249.663, 3, 1.000E+00,  1.00,  78,  1.030E-02,  7.188E-03, -9.999E+09, -9.999E+09, -9.999E+09, -9.999E+09, -9.999E+09, -9.999E+09, -9.999E+09, -9.999E+09, -9.999E+09, -9.999E+09, -9.999E+09, -9.999E+09, -9.999E+09, -9.999E+09, -9.999E+09, -9.999E+09, 255
2019-303T02:00:14.763,   1,   3,   1,   120,   4,          0,     12.920,  47484.605,    56.052,   -11.145,     0.055,   248.453, 3, 1.000E+00,  1.00,  78,  1.450E-02,  7.191E-03, -9.999E+09, -9.999E+09, -9.999E+09, -9.999E+09, -9.999E+09, -9.999E+09, -9.999E+09, -9.999E+09, -9.999E+09, -9.999E+09, -9.999E+09, -9.999E+09, -9.999E+09, -9.999E+09, -9.999E+09, -9.999E+09, 255
2019-303T02:02:14.764,   1,   3,   1,   120,   4,          0,     12.920,  47484.605,    56.042,   -11.143,     0.055,   247.243, 3, 1.000E+00,  1.00,  78,  1.465E-02,  7.191E-03, -9.999E+09, -9.999E+09, -9.999E+09, -9.999E+09, -9.999E+09, -9.999E+09, -9.999E+09, -9.999E+09, -9.999E+09, -9.999E+09, -9.999E+09, -9.999E+09, -9.999E+09, -9.999E+09, -9.999E+09, -9.999E+09, 255
2019-303T02:04:14.766,   1,   3,   1,   120,   4,          0,     12.920,  47484.605,    56.033,   -11.141,     0.055,   246.034, 3, 1.000E+00,  1.00,  78,  1.252E-02,  7.190E-03, -9.999E+09, -9.999E+09, -9.999E+09, -9.999E+09, -9.999E+09, -9.999E+09, -9.999E+09, -9.999E+09, -9.999E+09, -9.999E+09, -9.999E+09, -9.999E+09, -9.999E+09, -9.999E+09, -9.999E+09, -9.999E+09, 255
2019-303T02:06:14.767,   1,   3,   1,   120,   4,          0,     12.920,  47484.605,    56.024,   -11.140,     0.055,   244.824, 3, 1.000E+00,  1.00,  78,  1.236E-02,  7.190E-03, -9.999E+09, -9.999E+09, -9.999E+09, -9.999E+09, -9.999E+09, -9.999E+09, -9.999E+09, -9.999E+09, -9.999E+09, -9.999E+09, -9.999E+09, -9.999E+09, -9.999E+09, -9.999E+09, -9.999E+09, -9.999E+09, 255